User: anonymous   Login
Location: Unspecified
(0.0000°N, 0.0000°E)
Time: 08:28:21
(UTC+02:00)
Language:

Cosmos 1092 Rocket - Orbit

View from above orbital plane
View from above orbital plane
View from above satellite
View from above satellite

Ground track
Ground track

The orbit data is extracted from the following two-line orbital elements,

1 11327U 79030B   16207.53339571 -.00000028  00000-0 -44103-4 0  9993
2 11327  82.9498 178.4005 0028201  17.0822 112.9887 13.76967449874184
Epoch (UTC): 25 July 2016 12:48:05
Eccentricity: 0.0028201
inclination: 82.9498°
perigee height: 954 km
apogee height: 995 km
right ascension of ascending node: 178.4005°
argument of perigee: 17.0822°
revolutions per day: 13.76967449
mean anomaly at epoch: 112.9887°
orbit number at epoch: 87418

The dashed part of the orbit path shows where the satellite is in the earth's shadow,  

DLR